WXM80 ListenWXM80 Stop

You find our weather info also at:

UK Metoffice

WeatherCloud

Weather Underground

Northeastern Weather Network

AWEKAS

Citizen Weather Observer Program (CWOP)

HAMweather, WeatherForYou, PWS Weather


Weather Underground History page Text

Daily Summary for December 23, 2017 Units:  English    Metric   Both
« Previous Day
Next Day »
Daily Weekly Monthly Yearly Custom
  High: Low: Average:
Temperature: TemperatureF °F 35.2 °F 42.6 °F
Dew Point: DewpointF °F 34.2 °F 41.6 °F
Humidity: Humidity % 92 % 96 %
Wind Speed: WindSpeedMPH mph 0.0 mph 4.3 mph
Wind Gust: WindSpeedGustMPH mph - -
Wind:- - SSE
Pressure: PressureIn in 29.62 in -
Precipitation: 0.28 in    
Historical Graphs
 
 
Tabular Data for December 23, 2017
Time Temperature Dew Point Pressure Wind Wind Speed Wind Gust Humidity Rainfall Rate (Hourly)
TemperatureF °F DewpointF °F PressureIn in Calm     Humidity % HourlyPrecipIn in
00:04 35.8 °F 34.2 °F 30.14 in ENE 4.3 mph 8.1 mph 94 % 0.00 in
00:06 35.8 °F 34.2 °F 30.13 in ENE 5.0 mph 8.0 mph 94 % 0.00 in
00:11 35.8 °F 34.2 °F 30.13 in East 3.0 mph 7.0 mph 94 % 0.00 in
00:16 35.8 °F 34.5 °F 30.14 in ENE 4.2 mph 5.8 mph 95 % 0.00 in
00:17 35.8 °F 34.5 °F 30.14 in ENE 3.7 mph 4.6 mph 95 % 0.00 in
00:22 35.8 °F 34.5 °F 30.14 in ENE 3.5 mph 5.8 mph 95 % 0.00 in
00:23 35.8 °F 34.5 °F 30.14 in East 3.3 mph 5.0 mph 95 % 0.00 in
00:28 35.8 °F 34.5 °F 30.14 in ENE 2.9 mph 6.9 mph 95 % 0.00 in
00:29 35.8 °F 34.5 °F 30.14 in East 3.2 mph 6.9 mph 95 % 0.00 in
00:30 35.8 °F 34.5 °F 30.14 in ENE 4.8 mph 5.8 mph 95 % 0.00 in
00:34 35.8 °F 34.5 °F 30.15 in East 5.2 mph 6.0 mph 95 % 0.00 in
00:39 35.8 °F 34.5 °F 30.14 in East 4.3 mph 7.0 mph 95 % 0.00 in
00:43 35.8 °F 34.5 °F 30.14 in East 6.0 mph 7.0 mph 95 % 0.00 in
00:48 35.8 °F 34.5 °F 30.14 in East 4.3 mph 5.8 mph 95 % 0.00 in
00:53 35.8 °F 34.5 °F 30.14 in ENE 5.0 mph 8.1 mph 95 % 0.00 in
00:54 35.8 °F 34.5 °F 30.14 in East 5.6 mph 8.1 mph 95 % 0.00 in
00:59 35.8 °F 34.5 °F 30.13 in East 5.5 mph 7.0 mph 95 % 0.00 in
01:04 35.8 °F 34.5 °F 30.14 in ENE 4.8 mph 8.0 mph 95 % 0.00 in
01:09 35.8 °F 34.5 °F 30.14 in ENE 6.8 mph 9.2 mph 95 % 0.00 in
01:10 35.8 °F 34.5 °F 30.14 in ENE 7.5 mph 9.2 mph 95 % 0.00 in
01:11 35.8 °F 34.5 °F 30.13 in ENE 7.8 mph 9.2 mph 95 % 0.00 in
01:15 35.7 °F 34.4 °F 30.14 in ENE 5.7 mph 9.2 mph 95 % 0.00 in
01:19 35.7 °F 34.4 °F 30.14 in ENE 5.0 mph 8.1 mph 95 % 0.00 in
01:21 35.7 °F 34.4 °F 30.13 in East 7.8 mph 9.2 mph 95 % 0.00 in
01:26 35.7 °F 34.4 °F 30.13 in ENE 8.5 mph 11.5 mph 95 % 0.00 in
01:28 35.7 °F 34.4 °F 30.13 in ENE 6.8 mph 12.0 mph 95 % 0.00 in
01:33 35.7 °F 34.4 °F 30.12 in NE 9.1 mph 10.4 mph 95 % 0.00 in
01:35 35.6 °F 34.3 °F 30.12 in ENE 7.7 mph 11.5 mph 95 % 0.00 in
01:39 35.6 °F 34.3 °F 30.11 in ENE 8.1 mph 11.5 mph 95 % 0.00 in
01:44 35.5 °F 34.5 °F 30.11 in ENE 7.3 mph 11.5 mph 96 % 0.00 in
01:49 35.5 °F 34.5 °F 30.11 in ENE 10.1 mph 13.0 mph 96 % 0.00 in
01:59 35.5 °F 34.5 °F 30.10 in ENE 10.7 mph 12.7 mph 96 % 0.00 in
02:00 35.5 °F 34.5 °F 30.10 in NE 10.1 mph 14.0 mph 96 % 0.00 in
02:05 35.5 °F 34.5 °F 30.10 in ENE 7.9 mph 13.8 mph 96 % 0.00 in
02:10 35.5 °F 34.5 °F 30.09 in ENE 8.3 mph 11.5 mph 96 % 0.00 in
02:15 35.5 °F 34.5 °F 30.10 in ENE 7.2 mph 10.4 mph 96 % 0.00 in
02:17 35.5 °F 34.5 °F 30.10 in East 8.8 mph 11.5 mph 96 % 0.00 in
02:18 35.5 °F 34.5 °F 30.10 in ENE 9.8 mph 12.0 mph 96 % 0.00 in
02:23 35.4 °F 34.4 °F 30.09 in ENE 8.2 mph 11.5 mph 96 % 0.00 in
02:29 35.4 °F 34.4 °F 30.10 in ENE 7.9 mph 10.4 mph 96 % 0.00 in
02:34 35.4 °F 34.4 °F 30.11 in East 4.6 mph 6.9 mph 96 % 0.00 in
02:39 35.3 °F 34.3 °F 30.13 in East 5.5 mph 8.1 mph 96 % 0.00 in
02:40 35.3 °F 34.3 °F 30.12 in East 4.5 mph 6.9 mph 96 % 0.00 in
02:45 35.2 °F 34.2 °F 30.12 in East 3.8 mph 4.6 mph 96 % 0.00 in
02:47 35.2 °F 34.2 °F 30.13 in East 2.6 mph 6.0 mph 96 % 0.00 in
02:52 35.2 °F 34.2 °F 30.12 in East 6.1 mph 8.0 mph 96 % 0.00 in
02:57 35.2 °F 34.2 °F 30.11 in East 5.0 mph 6.9 mph 96 % 0.00 in
03:02 35.2 °F 34.2 °F 30.11 in East 6.4 mph 8.1 mph 96 % 0.00 in
03:07 35.2 °F 34.2 °F 30.11 in East 6.3 mph 9.2 mph 96 % 0.00 in
03:12 35.2 °F 34.2 °F 30.11 in ENE 5.8 mph 9.2 mph 96 % 0.00 in
03:14 35.3 °F 34.3 °F 30.10 in East 5.4 mph 6.0 mph 96 % 0.00 in
03:19 35.3 °F 34.3 °F 30.10 in East 5.8 mph 8.1 mph 96 % 0.00 in
03:20 35.3 °F 34.3 °F 30.10 in East 5.7 mph 6.9 mph 96 % 0.00 in
03:25 35.3 °F 34.3 °F 30.09 in East 5.8 mph 8.1 mph 96 % 0.00 in
03:31 35.4 °F 34.4 °F 30.08 in East 4.9 mph 7.0 mph 96 % 0.00 in
03:32 35.4 °F 34.4 °F 30.08 in East 3.2 mph 5.8 mph 96 % 0.00 in
03:37 35.5 °F 34.5 °F 30.09 in East 1.7 mph 4.6 mph 96 % 0.00 in
03:40 35.5 °F 34.5 °F 30.09 in East 3.5 mph 5.8 mph 96 % 0.00 in
03:45 35.5 °F 34.5 °F 30.09 in East 2.2 mph 3.5 mph 96 % 0.00 in
03:47 35.5 °F 34.5 °F 30.09 in East 1.1 mph 2.3 mph 96 % 0.00 in
03:52 35.6 °F 34.6 °F 30.08 in ENE 3.0 mph 4.6 mph 96 % 0.00 in
03:55 35.6 °F 34.6 °F 30.08 in ENE 2.8 mph 3.5 mph 96 % 0.00 in
04:00 35.7 °F 34.7 °F 30.09 in ENE 2.7 mph 6.9 mph 96 % 0.00 in
04:01 35.8 °F 34.8 °F 30.09 in ENE 2.6 mph 4.6 mph 96 % 0.00 in
04:06 35.8 °F 34.8 °F 30.09 in East 4.1 mph 6.0 mph 96 % 0.00 in
04:11 35.9 °F 35.1 °F 30.09 in East 4.5 mph 5.8 mph 97 % 0.00 in
04:16 35.9 °F 35.1 °F 30.09 in ENE 3.1 mph 4.6 mph 97 % 0.00 in
04:22 35.9 °F 35.1 °F 30.10 in East 2.7 mph 5.0 mph 97 % 0.00 in
04:23 35.9 °F 35.1 °F 30.10 in East 2.1 mph 3.5 mph 97 % 0.00 in
04:28 36.0 °F 35.2 °F 30.09 in ENE 2.1 mph 3.5 mph 97 % 0.00 in
04:30 36.0 °F 35.2 °F 30.09 in ENE 2.4 mph 3.5 mph 97 % 0.00 in
04:33 36.0 °F 35.2 °F 30.09 in ENE 2.3 mph 4.6 mph 97 % 0.00 in
04:38 36.1 °F 35.3 °F 30.09 in ENE 2.6 mph 3.5 mph 97 % 0.00 in
04:39 36.2 °F 35.4 °F 30.09 in ENE 2.4 mph 3.5 mph 97 % 0.00 in
04:41 36.2 °F 35.4 °F 30.09 in ENE 2.5 mph 3.5 mph 97 % 0.00 in
04:44 36.2 °F 35.4 °F 30.09 in East 1.9 mph 4.6 mph 97 % 0.00 in
04:49 36.3 °F 35.5 °F 30.08 in East 4.0 mph 5.0 mph 97 % 0.00 in
04:54 36.4 °F 35.6 °F 30.08 in East 5.5 mph 6.9 mph 97 % 0.00 in
04:57 36.5 °F 35.7 °F 30.07 in ESE 3.6 mph 5.0 mph 97 % 0.00 in
05:07 36.7 °F 35.9 °F 30.06 in East 3.4 mph 4.6 mph 97 % 0.00 in
05:11 36.8 °F 36.0 °F 30.06 in ENE 5.6 mph 7.0 mph 97 % 0.00 in
05:16 36.9 °F 36.1 °F 30.07 in East 3.5 mph 5.0 mph 97 % 0.00 in
05:17 36.9 °F 36.1 °F 30.07 in East 3.1 mph 4.6 mph 97 % 0.00 in
05:22 37.0 °F 36.2 °F 30.07 in East 2.1 mph 3.5 mph 97 % 0.00 in
05:27 37.0 °F 36.2 °F 30.07 in East 3.3 mph 4.6 mph 97 % 0.00 in
05:29 37.0 °F 36.2 °F 30.07 in ENE 3.1 mph 4.6 mph 97 % 0.00 in
05:31 37.0 °F 36.2 °F 30.07 in East 4.0 mph 6.9 mph 97 % 0.00 in
05:36 37.0 °F 36.2 °F 30.06 in East 3.9 mph 5.8 mph 97 % 0.00 in
05:41 37.1 °F 36.3 °F 30.07 in East 0.3 mph 2.3 mph 97 % 0.00 in
05:46 37.1 °F 36.3 °F 30.07 in East 1.5 mph 4.6 mph 97 % 0.00 in
05:47 37.1 °F 36.3 °F 30.07 in East 1.1 mph 4.6 mph 97 % 0.00 in
05:48 37.1 °F 36.3 °F 30.07 in East 1.3 mph 3.5 mph 97 % 0.00 in
05:53 37.1 °F 36.3 °F 30.06 in East 1.8 mph 3.5 mph 97 % 0.00 in
05:57 37.2 °F 36.4 °F 30.06 in East 1.4 mph 3.5 mph 97 % 0.00 in
06:01 37.3 °F 36.5 °F 30.06 in East 2.2 mph 4.6 mph 97 % 0.00 in
06:05 37.3 °F 36.5 °F 30.06 in East 3.3 mph 5.0 mph 97 % 0.00 in
06:08 37.3 °F 36.5 °F 30.05 in East 1.1 mph 2.0 mph 97 % 0.00 in
06:12 37.4 °F 36.6 °F 30.05 in East 3.6 mph 5.0 mph 97 % 0.00 in
06:14 37.4 °F 36.6 °F 30.05 in East 2.3 mph 5.0 mph 97 % 0.00 in
06:19 37.5 °F 36.7 °F 30.05 in East 4.6 mph 6.0 mph 97 % 0.00 in
06:20 37.5 °F 36.7 °F 30.04 in East 5.5 mph 6.0 mph 97 % 0.00 in
06:25 37.6 °F 36.8 °F 30.04 in East 2.9 mph 6.0 mph 97 % 0.00 in
06:27 37.7 °F 36.9 °F 30.04 in East 3.6 mph 5.8 mph 97 % 0.00 in
06:32 37.8 °F 37.0 °F 30.03 in East 4.9 mph 6.0 mph 97 % 0.00 in
06:35 37.9 °F 37.1 °F 30.04 in East 3.9 mph 5.8 mph 97 % 0.00 in
06:40 38.0 °F 37.2 °F 30.03 in ENE 4.9 mph 8.1 mph 97 % 0.00 in
06:41 38.1 °F 37.3 °F 30.03 in East 4.2 mph 8.1 mph 97 % 0.00 in
06:43 38.1 °F 37.3 °F 30.03 in East 6.4 mph 10.4 mph 97 % 0.00 in
06:48 38.2 °F 37.4 °F 30.03 in East 4.9 mph 8.1 mph 97 % 0.00 in
06:53 38.3 °F 37.5 °F 30.02 in ENE 7.1 mph 8.1 mph 97 % 0.00 in
06:57 38.4 °F 37.6 °F 30.02 in ENE 7.4 mph 11.5 mph 97 % 0.00 in
06:58 38.4 °F 37.6 °F 30.03 in NE 4.3 mph 9.2 mph 97 % 0.00 in
07:04 38.6 °F 37.8 °F 30.03 in ENE 6.3 mph 8.0 mph 97 % 0.00 in
07:05 38.6 °F 37.8 °F 30.03 in East 4.8 mph 6.9 mph 97 % 0.00 in
07:07 38.7 °F 37.9 °F 30.04 in East 4.1 mph 6.0 mph 97 % 0.00 in
07:11 38.7 °F 37.9 °F 30.03 in ENE 4.9 mph 8.1 mph 97 % 0.00 in
07:16 38.8 °F 38.0 °F 30.03 in ENE 5.6 mph 6.9 mph 97 % 0.00 in
07:22 38.9 °F 38.1 °F 30.03 in East 4.9 mph 7.0 mph 97 % 0.00 in
07:23 38.9 °F 38.1 °F 30.03 in ENE 3.4 mph 6.9 mph 97 % 0.00 in
07:28 39.1 °F 38.3 °F 30.03 in ENE 4.5 mph 6.9 mph 97 % 0.00 in
07:33 39.1 °F 38.3 °F 30.02 in East 4.4 mph 8.1 mph 97 % 0.00 in
07:34 39.2 °F 38.4 °F 30.02 in ENE 5.5 mph 9.2 mph 97 % 0.00 in
07:39 39.2 °F 38.4 °F 30.03 in ENE 3.4 mph 3.5 mph 97 % 0.00 in
07:43 39.1 °F 38.3 °F 30.02 in ENE 7.5 mph 9.0 mph 97 % 0.00 in
07:46 39.0 °F 38.2 °F 30.01 in ENE 8.0 mph 11.5 mph 97 % 0.00 in
07:51 38.7 °F 37.9 °F 30.00 in East 7.2 mph 10.4 mph 97 % 0.00 in
07:54 38.6 °F 37.8 °F 30.01 in ENE 7.9 mph 11.5 mph 97 % 0.01 in
07:59 38.5 °F 37.7 °F 30.01 in ENE 7.1 mph 9.2 mph 97 % 0.01 in
08:04 38.3 °F 37.5 °F 30.02 in East 6.0 mph 10.0 mph 97 % 0.01 in
08:06 38.3 °F 37.5 °F 30.01 in ENE 6.7 mph 10.4 mph 97 % 0.01 in
08:11 38.2 °F 37.4 °F 30.01 in ENE 7.4 mph 10.0 mph 97 % 0.01 in
08:16 38.1 °F 37.3 °F 30.02 in East 7.8 mph 9.0 mph 97 % 0.01 in
08:24 37.9 °F 37.1 °F 30.00 in East 8.2 mph 11.5 mph 97 % 0.01 in
08:28 37.9 °F 37.1 °F 30.00 in NE 6.9 mph 11.5 mph 97 % 0.02 in
08:33 37.9 °F 37.1 °F 29.99 in ENE 6.9 mph 10.4 mph 97 % 0.02 in
08:35 37.9 °F 37.1 °F 29.99 in East 7.3 mph 11.0 mph 97 % 0.02 in
08:40 38.0 °F 37.2 °F 29.98 in ENE 8.1 mph 12.0 mph 97 % 0.02 in
08:42 38.0 °F 37.2 °F 29.98 in East 7.5 mph 11.5 mph 97 % 0.02 in
08:47 38.0 °F 37.2 °F 29.98 in NE 8.7 mph 11.0 mph 97 % 0.02 in
08:49 38.0 °F 37.2 °F 29.98 in ENE 7.2 mph 10.4 mph 97 % 0.02 in
08:57 38.1 °F 37.3 °F 29.97 in ENE 7.0 mph 10.4 mph 97 % 0.01 in
09:03 38.2 °F 37.4 °F 29.96 in ENE 8.4 mph 9.0 mph 97 % 0.01 in
09:06 38.3 °F 37.5 °F 29.96 in ENE 8.1 mph 11.5 mph 97 % 0.01 in
09:11 38.5 °F 37.7 °F 29.96 in East 7.5 mph 10.4 mph 97 % 0.01 in
09:17 38.6 °F 37.8 °F 29.95 in ENE 6.2 mph 9.2 mph 97 % 0.01 in
09:21 38.7 °F 37.9 °F 29.95 in ENE 5.5 mph 8.1 mph 97 % 0.01 in
09:25 38.8 °F 38.0 °F 29.96 in ENE 5.7 mph 8.1 mph 97 % 0.01 in
09:27 38.8 °F 38.0 °F 29.96 in East 5.8 mph 9.0 mph 97 % 0.00 in
09:32 38.8 °F 38.0 °F 29.95 in East 5.8 mph 8.1 mph 97 % 0.01 in
09:33 38.9 °F 38.1 °F 29.95 in ENE 6.1 mph 10.0 mph 97 % 0.01 in
09:38 38.9 °F 38.1 °F 29.95 in East 5.6 mph 9.2 mph 97 % 0.01 in
09:39 39.0 °F 38.2 °F 29.95 in ENE 5.6 mph 8.1 mph 97 % 0.01 in
09:41 39.0 °F 38.2 °F 29.95 in ENE 6.3 mph 9.2 mph 97 % 0.01 in
09:46 39.2 °F 38.7 °F 29.95 in ENE 5.9 mph 8.1 mph 98 % 0.01 in
09:47 39.3 °F 38.8 °F 29.94 in ENE 6.8 mph 11.5 mph 98 % 0.01 in
09:48 39.3 °F 38.8 °F 29.94 in East 6.6 mph 11.5 mph 98 % 0.01 in
09:53 39.5 °F 38.7 °F 29.94 in ENE 6.4 mph 10.4 mph 97 % 0.02 in
09:56 39.6 °F 38.8 °F 29.94 in ENE 7.0 mph 12.0 mph 97 % 0.00 in
09:59 39.7 °F 38.9 °F 29.93 in ENE 7.4 mph 9.2 mph 97 % 0.03 in
10:04 39.8 °F 39.3 °F 29.92 in ENE 7.5 mph 10.4 mph 98 % 0.03 in
10:10 40.0 °F 39.5 °F 29.93 in East 5.0 mph 9.2 mph 98 % 0.04 in
10:14 40.1 °F 39.6 °F 29.93 in ENE 4.4 mph 5.0 mph 98 % 0.05 in
10:16 40.1 °F 39.6 °F 29.93 in ENE 6.2 mph 9.2 mph 98 % 0.05 in
10:21 40.1 °F 39.6 °F 29.92 in ENE 4.0 mph 6.9 mph 98 % 0.05 in
10:26 40.0 °F 39.5 °F 29.92 in ENE 6.1 mph 8.1 mph 98 % 0.05 in
10:27 40.0 °F 39.5 °F 29.92 in ENE 5.5 mph 8.1 mph 98 % 0.05 in
10:30 40.0 °F 39.5 °F 29.92 in ENE 6.3 mph 11.0 mph 98 % 0.05 in
10:33 40.0 °F 39.5 °F 29.91 in ENE 4.4 mph 8.1 mph 98 % 0.04 in
10:38 40.1 °F 39.3 °F 29.92 in NE 2.3 mph 5.8 mph 97 % 0.05 in
10:41 40.1 °F 39.3 °F 29.91 in ENE 3.0 mph 7.0 mph 97 % 0.00 in
10:43 40.1 °F 39.3 °F 29.90 in ENE 5.2 mph 8.0 mph 97 % 0.06 in
10:52 40.3 °F 39.5 °F 29.89 in ENE 6.3 mph 8.1 mph 97 % 0.05 in
10:53 40.3 °F 39.5 °F 29.89 in ENE 6.5 mph 10.4 mph 97 % 0.06 in
10:58 40.2 °F 39.4 °F 29.87 in ENE 6.4 mph 9.2 mph 97 % 0.05 in
11:00 40.2 °F 39.4 °F 29.87 in ENE 6.2 mph 11.5 mph 97 % 0.05 in
11:05 40.2 °F 39.4 °F 29.86 in ENE 5.4 mph 9.2 mph 97 % 0.04 in
11:08 40.2 °F 39.4 °F 29.86 in ENE 3.8 mph 8.1 mph 97 % 0.04 in
11:14 40.0 °F 39.5 °F 29.84 in ENE 6.4 mph 6.9 mph 98 % 0.03 in
11:15 40.0 °F 39.5 °F 29.84 in ENE 7.9 mph 11.5 mph 98 % 0.03 in
11:16 40.0 °F 39.5 °F 29.84 in ENE 7.6 mph 11.5 mph 98 % 0.03 in
11:21 39.8 °F 39.3 °F 29.84 in ENE 4.6 mph 8.1 mph 98 % 0.04 in
11:25 39.8 °F 39.0 °F 29.84 in NE 4.1 mph 5.0 mph 97 % 0.04 in
11:30 39.8 °F 39.3 °F 29.84 in ENE 4.4 mph 9.2 mph 98 % 0.05 in
11:33 39.9 °F 39.4 °F 29.83 in ENE 5.2 mph 8.1 mph 98 % 0.05 in
11:38 40.1 °F 39.6 °F 29.83 in ENE 6.6 mph 9.2 mph 98 % 0.04 in
11:41 40.4 °F 39.9 °F 29.82 in ENE 5.8 mph 10.4 mph 98 % 0.05 in
11:46 40.9 °F 40.4 °F 29.81 in ENE 4.4 mph 7.0 mph 98 % 0.04 in
11:50 41.0 °F 40.5 °F 29.80 in ENE 6.2 mph 10.4 mph 98 % 0.04 in
11:55 41.4 °F 40.9 °F 29.80 in East 5.8 mph 8.1 mph 98 % 0.04 in
12:00 41.8 °F 41.3 °F 29.79 in East 4.0 mph 5.8 mph 98 % 0.04 in
12:04 42.0 °F 41.5 °F 29.79 in East 4.1 mph 5.8 mph 98 % 0.04 in
12:05 42.1 °F 41.6 °F 29.78 in East 5.4 mph 6.0 mph 98 % 0.04 in
12:11 42.2 °F 41.7 °F 29.79 in East 2.0 mph 6.0 mph 98 % 0.00 in
12:16 42.4 °F 41.9 °F 29.78 in ENE 3.5 mph 4.0 mph 98 % 0.04 in
12:17 42.4 °F 41.9 °F 29.79 in ENE 3.4 mph 4.6 mph 98 % 0.04 in
12:22 42.5 °F 42.0 °F 29.78 in East 3.2 mph 3.5 mph 98 % 0.05 in
12:24 42.6 °F 42.1 °F 29.78 in East 3.0 mph 4.6 mph 98 % 0.05 in
12:29 42.7 °F 42.2 °F 29.77 in ENE 3.1 mph 4.6 mph 98 % 0.04 in
12:34 42.7 °F 42.2 °F 29.77 in ENE 2.8 mph 3.5 mph 98 % 0.05 in
12:37 42.8 °F 42.3 °F 29.76 in ENE 2.7 mph 3.5 mph 98 % 0.05 in
12:41 42.8 °F 42.3 °F 29.76 in ENE 2.6 mph 6.9 mph 98 % 0.05 in
12:46 42.9 °F 42.4 °F 29.75 in ENE 3.4 mph 3.5 mph 98 % 0.06 in
12:51 42.9 °F 42.4 °F 29.75 in ENE 1.1 mph 2.3 mph 98 % 0.06 in
12:53 42.9 °F 42.4 °F 29.76 in Calm   2.3 mph 98 % 0.05 in
12:58 43.0 °F 42.5 °F 29.75 in NNE 1.8 mph 3.5 mph 98 % 0.06 in
12:59 43.0 °F 42.5 °F 29.74 in NNE 2.1 mph 3.5 mph 98 % 0.06 in
13:00 43.0 °F 42.5 °F 29.74 in NNE 1.3 mph 3.5 mph 98 % 0.07 in
13:05 43.1 °F 42.6 °F 29.74 in NE 0.9 mph 3.5 mph 98 % 0.08 in
13:08 43.1 °F 42.6 °F 29.73 in NE 1.4 mph 3.5 mph 98 % 0.07 in
13:14 43.1 °F 42.6 °F 29.73 in SSE 0.8 mph 2.3 mph 98 % 0.07 in
13:15 43.1 °F 42.6 °F 29.72 in SE 2.4 mph 4.0 mph 98 % 0.08 in
13:20 43.2 °F 42.7 °F 29.71 in NE 1.6 mph 4.6 mph 98 % 0.07 in
13:23 43.2 °F 42.7 °F 29.71 in WSW 0.2 mph 3.5 mph 98 % 0.08 in
13:28 43.3 °F 42.8 °F 29.70 in Calm     98 % 0.08 in
13:30 43.3 °F 42.8 °F 29.69 in Calm     98 % 0.08 in
13:35 43.3 °F 42.8 °F 29.69 in Calm     98 % 0.07 in
13:40 43.4 °F 42.9 °F 29.68 in SSW 4.1 mph 6.9 mph 98 % 0.06 in
13:43 43.6 °F 43.1 °F 29.68 in SSW 4.5 mph 10.4 mph 98 % 0.06 in
13:44 43.6 °F 43.1 °F 29.68 in SSW 5.3 mph 10.4 mph 98 % 0.06 in
13:49 46.1 °F 45.6 °F 29.67 in SSW 6.7 mph 11.5 mph 98 % 0.05 in
13:54 47.7 °F 47.2 °F 29.67 in SSW 7.8 mph 15.0 mph 98 % 0.05 in
13:55 47.9 °F 47.4 °F 29.67 in SSW 7.7 mph 15.0 mph 98 % 0.05 in
14:00 49.1 °F 48.6 °F 29.66 in SW 4.9 mph 15.0 mph 98 % 0.03 in
14:05 49.8 °F 49.3 °F 29.66 in SW 9.9 mph 15.0 mph 98 % 0.02 in
14:06 49.9 °F 49.4 °F 29.66 in South 7.8 mph 15.0 mph 98 % 0.02 in
14:11 50.3 °F 49.8 °F 29.66 in SSW 8.1 mph 15.0 mph 98 % 0.02 in
14:13 50.5 °F 50.0 °F 29.65 in South 3.6 mph 11.5 mph 98 % 0.02 in
14:17 50.7 °F 50.4 °F 29.65 in SSW 9.4 mph 16.1 mph 99 % 0.01 in
14:21 50.8 °F 50.5 °F 29.65 in SSW 8.4 mph 11.5 mph 99 % 0.00 in
14:28 51.0 °F 50.5 °F 29.65 in SSW 5.8 mph 11.5 mph 98 % 0.00 in
14:29 51.0 °F 50.5 °F 29.65 in SSW 4.6 mph 10.4 mph 98 % 0.00 in
14:34 51.0 °F 50.5 °F 29.65 in SW 8.5 mph 11.5 mph 98 % 0.00 in
14:36 51.1 °F 50.6 °F 29.65 in South 4.9 mph 12.7 mph 98 % 0.00 in
14:41 51.2 °F 50.7 °F 29.64 in SSW 6.9 mph 11.5 mph 98 % 0.00 in
14:42 51.2 °F 50.7 °F 29.63 in SSW 9.9 mph 21.0 mph 98 % 0.00 in
14:47 51.2 °F 50.9 °F 29.64 in SSW 4.8 mph 9.2 mph 99 % 0.00 in
14:52 51.3 °F 51.0 °F 29.63 in SSW 5.9 mph 10.4 mph 99 % 0.00 in
14:55 51.3 °F 50.8 °F 29.63 in SSE 6.8 mph 11.5 mph 98 % 0.00 in
15:00 51.4 °F 50.9 °F 29.63 in SSW 6.2 mph 9.2 mph 98 % 0.00 in
15:05 51.4 °F 50.9 °F 29.63 in SSW 9.0 mph 15.0 mph 98 % 0.00 in
15:06 51.4 °F 50.9 °F 29.63 in SSW 7.6 mph 12.7 mph 98 % 0.00 in
15:11 51.5 °F 51.0 °F 29.63 in SW 10.4 mph 18.4 mph 98 % 0.00 in
15:17 51.5 °F 51.0 °F 29.63 in SW 5.7 mph 11.5 mph 98 % 0.00 in
15:22 51.6 °F 51.1 °F 29.63 in SSW 6.1 mph 13.0 mph 98 % 0.00 in
15:23 51.6 °F 51.1 °F 29.63 in SW 11.7 mph 15.0 mph 98 % 0.00 in
15:28 51.6 °F 51.1 °F 29.64 in WSW 4.5 mph 11.5 mph 98 % 0.00 in
15:30 51.7 °F 51.2 °F 29.63 in SSW 10.1 mph 19.0 mph 98 % 0.00 in
15:35 51.7 °F 51.2 °F 29.63 in SSW 7.3 mph 17.0 mph 98 % 0.00 in
15:40 51.8 °F 51.3 °F 29.63 in South 5.0 mph 10.4 mph 98 % 0.00 in
15:43 51.8 °F 51.3 °F 29.62 in SSW 8.1 mph 12.7 mph 98 % 0.00 in
15:45 51.8 °F 51.3 °F 29.62 in SSW 6.6 mph 15.0 mph 98 % 0.00 in
15:50 51.8 °F 51.3 °F 29.62 in South 5.7 mph 11.5 mph 98 % 0.00 in
15:51 51.8 °F 51.3 °F 29.63 in SSW 6.0 mph 12.0 mph 98 % 0.00 in
15:56 51.9 °F 51.4 °F 29.63 in SSW 6.0 mph 14.0 mph 98 % 0.00 in
16:01 51.9 °F 51.4 °F 29.62 in SSW 3.8 mph 10.4 mph 98 % 0.00 in
16:02 51.9 °F 51.4 °F 29.63 in South 7.1 mph 8.1 mph 98 % 0.00 in
16:07 51.9 °F 51.4 °F 29.63 in SSW 4.0 mph 9.2 mph 98 % 0.00 in
16:12 51.9 °F 51.4 °F 29.64 in SSW 6.6 mph 10.4 mph 98 % 0.00 in
16:13 51.9 °F 51.4 °F 29.64 in South 4.4 mph 7.0 mph 98 % 0.00 in
16:18 51.9 °F 51.4 °F 29.65 in South 6.2 mph 10.4 mph 98 % 0.00 in
16:20 51.9 °F 51.4 °F 29.65 in South 4.1 mph 11.5 mph 98 % 0.00 in
16:25 51.9 °F 51.1 °F 29.65 in SSW 3.8 mph 6.9 mph 97 % 0.00 in
16:31 51.9 °F 51.1 °F 29.65 in SSW 3.1 mph 9.2 mph 97 % 0.00 in
16:32 51.8 °F 51.0 °F 29.65 in SW 5.3 mph 7.0 mph 97 % 0.00 in
16:38 51.8 °F 51.0 °F 29.65 in SSW 5.5 mph 8.1 mph 97 % 0.00 in
16:40 51.8 °F 51.0 °F 29.65 in West 4.4 mph 7.0 mph 97 % 0.00 in
16:45 51.8 °F 51.0 °F 29.65 in SW 6.5 mph 10.4 mph 97 % 0.00 in
16:46 51.8 °F 51.0 °F 29.65 in SSW 3.3 mph 10.4 mph 97 % 0.00 in
16:51 51.8 °F 51.0 °F 29.64 in SSW 5.0 mph 6.9 mph 97 % 0.00 in
16:56 51.8 °F 51.0 °F 29.64 in South 3.9 mph 9.2 mph 97 % 0.00 in
17:01 51.8 °F 51.0 °F 29.64 in SW 3.0 mph 6.0 mph 97 % 0.00 in
17:06 51.8 °F 51.0 °F 29.64 in WSW 3.6 mph 5.8 mph 97 % 0.00 in
17:11 51.8 °F 51.0 °F 29.65 in SSW 3.6 mph 5.8 mph 97 % 0.00 in
17:16 51.9 °F 51.1 °F 29.65 in South 3.0 mph 6.9 mph 97 % 0.00 in
17:19 51.9 °F 51.1 °F 29.65 in SSW 1.0 mph 4.0 mph 97 % 0.00 in
17:22 51.9 °F 51.1 °F 29.65 in SW 1.8 mph 3.5 mph 97 % 0.00 in
17:25 51.9 °F 51.1 °F 29.66 in SW 1.9 mph 5.8 mph 97 % 0.00 in
17:30 51.9 °F 51.1 °F 29.65 in SSW 1.8 mph 4.6 mph 97 % 0.00 in
17:33 51.9 °F 51.1 °F 29.66 in SSW 1.7 mph 4.0 mph 97 % 0.00 in
17:34 51.9 °F 51.1 °F 29.66 in SW 5.4 mph 8.1 mph 97 % 0.00 in
17:39 52.0 °F 51.2 °F 29.66 in SSW 2.9 mph 5.8 mph 97 % 0.00 in
17:41 52.0 °F 51.2 °F 29.66 in SSW 2.7 mph 5.0 mph 97 % 0.00 in
17:46 52.0 °F 51.2 °F 29.66 in SW 2.1 mph 9.2 mph 97 % 0.00 in
17:49 52.0 °F 51.2 °F 29.66 in SSW 2.8 mph 4.6 mph 97 % 0.00 in
17:54 52.0 °F 51.2 °F 29.66 in SW 2.5 mph 5.0 mph 97 % 0.00 in
17:59 52.0 °F 51.2 °F 29.66 in SSW 2.4 mph 4.6 mph 97 % 0.00 in
18:01 52.0 °F 51.2 °F 29.66 in SSW 2.1 mph 3.5 mph 97 % 0.00 in
18:05 52.0 °F 51.2 °F 29.66 in West 3.0 mph 5.0 mph 97 % 0.00 in
18:10 52.1 °F 51.3 °F 29.66 in WSW 0.1 mph 1.2 mph 97 % 0.00 in
18:15 52.1 °F 51.3 °F 29.67 in West 3.0 mph 4.6 mph 97 % 0.00 in
18:24 52.1 °F 51.3 °F 29.68 in NW 2.3 mph 3.5 mph 97 % 0.00 in
18:29 51.4 °F 50.0 °F 29.69 in NW 2.3 mph 3.5 mph 95 % 0.00 in
18:30 51.3 °F 49.9 °F 29.69 in NW 2.0 mph 3.5 mph 95 % 0.00 in
18:35 51.0 °F 49.6 °F 29.69 in WNW 1.3 mph 3.5 mph 95 % 0.00 in
18:40 50.6 °F 48.9 °F 29.70 in NW 1.6 mph 4.0 mph 94 % 0.00 in
18:45 49.9 °F 48.0 °F 29.72 in NNW 3.8 mph 7.0 mph 93 % 0.00 in
18:48 49.6 °F 47.7 °F 29.72 in NNW 2.3 mph 9.2 mph 93 % 0.00 in
18:53 49.2 °F 47.5 °F 29.72 in NW 2.7 mph 3.5 mph 94 % 0.01 in
18:59 49.0 °F 47.3 °F 29.72 in WNW 3.3 mph 3.5 mph 94 % 0.01 in
19:00 49.0 °F 47.3 °F 29.73 in WNW 3.3 mph 4.6 mph 94 % 0.01 in
19:03 48.9 °F 47.2 °F 29.72 in West 2.9 mph 7.0 mph 94 % 0.01 in
19:07 48.8 °F 47.4 °F 29.73 in West 2.8 mph 5.8 mph 95 % 0.02 in
19:12 48.7 °F 47.3 °F 29.73 in WNW 4.3 mph 8.1 mph 95 % 0.02 in
19:14 48.7 °F 47.3 °F 29.73 in NW 2.3 mph 7.0 mph 95 % 0.03 in
19:15 48.7 °F 47.3 °F 29.73 in NW 4.7 mph 6.9 mph 95 % 0.03 in
19:20 48.6 °F 47.2 °F 29.74 in WNW 0.3 mph 1.2 mph 95 % 0.03 in
19:21 48.6 °F 47.2 °F 29.74 in West 0.1 mph 3.5 mph 95 % 0.03 in
19:26 48.5 °F 47.1 °F 29.73 in WSW 2.0 mph 3.5 mph 95 % 0.03 in
19:29 48.5 °F 47.1 °F 29.73 in WSW 0.5 mph 1.0 mph 95 % 0.03 in
19:34 48.5 °F 47.4 °F 29.73 in WSW 0.1 mph 3.5 mph 96 % 0.03 in
19:37 48.4 °F 47.3 °F 29.73 in WSW 2.0 mph 7.0 mph 96 % 0.03 in
19:42 48.4 °F 47.3 °F 29.73 in WSW 0.1 mph 1.2 mph 96 % 0.03 in
19:43 48.3 °F 47.2 °F 29.73 in SW 2.6 mph 3.5 mph 96 % 0.03 in
19:48 48.3 °F 47.2 °F 29.73 in WNW 1.3 mph 3.5 mph 96 % 0.03 in
19:52 48.3 °F 47.2 °F 29.73 in NW 0.7 mph 4.6 mph 96 % 0.03 in
19:57 48.2 °F 47.1 °F 29.73 in West 0.9 mph 2.3 mph 96 % 0.03 in
20:00 48.1 °F 47.0 °F 29.73 in West 0.3 mph 5.0 mph 96 % 0.03 in
20:05 48.1 °F 47.0 °F 29.74 in West 0.8 mph 3.5 mph 96 % 0.03 in
20:06 48.0 °F 46.9 °F 29.74 in West 0.5 mph 3.5 mph 96 % 0.03 in
20:11 47.9 °F 46.8 °F 29.74 in West 2.3 mph 3.5 mph 96 % 0.02 in
20:14 47.9 °F 46.8 °F 29.74 in WNW 0.1 mph 2.3 mph 96 % 0.01 in
20:19 47.8 °F 46.4 °F 29.74 in WNW 0.2 mph 4.6 mph 95 % 0.01 in
20:21 47.8 °F 46.4 °F 29.75 in WSW 2.9 mph 4.6 mph 95 % 0.01 in
20:22 47.7 °F 46.3 °F 29.75 in West 3.3 mph 6.0 mph 95 % 0.01 in
20:27 47.6 °F 46.2 °F 29.76 in SW 2.0 mph 4.0 mph 95 % 0.01 in
20:30 47.5 °F 46.1 °F 29.76 in West 1.2 mph 4.6 mph 95 % 0.01 in
20:35 47.4 °F 46.0 °F 29.76 in West 2.1 mph 4.6 mph 95 % 0.01 in
20:37 47.3 °F 45.9 °F 29.76 in WNW 2.2 mph 3.5 mph 95 % 0.01 in
20:42 47.2 °F 45.8 °F 29.77 in WNW 3.0 mph 4.6 mph 95 % 0.01 in
20:47 47.1 °F 45.7 °F 29.78 in West 4.7 mph 9.2 mph 95 % 0.01 in
20:49 47.0 °F 45.6 °F 29.77 in WSW 3.4 mph 8.1 mph 95 % 0.01 in
20:50 47.0 °F 45.6 °F 29.78 in WSW 2.9 mph 8.1 mph 95 % 0.01 in
20:55 46.9 °F 45.5 °F 29.78 in West 2.5 mph 6.9 mph 95 % 0.00 in
21:01 46.8 °F 45.4 °F 29.78 in WNW 3.9 mph 5.8 mph 95 % 0.00 in
21:03 46.7 °F 45.3 °F 29.78 in WNW 3.0 mph 6.9 mph 95 % 0.00 in
21:08 46.6 °F 45.2 °F 29.79 in WNW 2.1 mph 6.9 mph 95 % 0.00 in
21:13 46.5 °F 45.1 °F 29.78 in NW 1.8 mph 5.0 mph 95 % 0.00 in
21:17 46.4 °F 45.0 °F 29.78 in WNW 0.4 mph 4.6 mph 95 % 0.00 in
21:22 46.3 °F 44.9 °F 29.78 in WNW 3.1 mph 3.5 mph 95 % 0.00 in
21:23 46.3 °F 44.9 °F 29.78 in NW 0.6 mph 4.6 mph 95 % 0.00 in
21:24 46.3 °F 44.9 °F 29.78 in WNW 1.4 mph 4.6 mph 95 % 0.00 in
21:29 46.2 °F 44.8 °F 29.79 in NNW 1.4 mph 4.0 mph 95 % 0.00 in
21:37 46.1 °F 44.7 °F 29.81 in NW 2.7 mph 5.0 mph 95 % 0.00 in
21:42 46.0 °F 44.6 °F 29.80 in NW 0.7 mph 3.5 mph 95 % 0.00 in
21:48 45.9 °F 44.5 °F 29.82 in WNW 2.7 mph 4.6 mph 95 % 0.00 in
21:49 45.9 °F 44.5 °F 29.82 in WNW 1.1 mph 4.6 mph 95 % 0.00 in
21:54 45.9 °F 44.5 °F 29.83 in West 2.4 mph 4.0 mph 95 % 0.00 in
21:56 45.9 °F 44.5 °F 29.83 in WNW 3.1 mph 3.5 mph 95 % 0.00 in
22:01 45.8 °F 44.4 °F 29.84 in NW 3.9 mph 5.8 mph 95 % 0.00 in
22:05 45.8 °F 44.4 °F 29.85 in WNW 1.5 mph 4.6 mph 95 % 0.00 in
22:06 45.8 °F 44.4 °F 29.85 in WNW 2.3 mph 3.5 mph 95 % 0.00 in
22:12 45.7 °F 44.4 °F 29.86 in WNW 1.0 mph 4.0 mph 95 % 0.00 in
22:17 45.7 °F 44.4 °F 29.85 in NW 1.3 mph 6.9 mph 95 % 0.00 in
22:19 45.6 °F 44.3 °F 29.85 in WNW 1.7 mph 4.0 mph 95 % 0.00 in
22:24 45.6 °F 44.3 °F 29.84 in NW 1.2 mph 2.3 mph 95 % 0.00 in
22:28 45.5 °F 44.2 °F 29.85 in West 1.6 mph 4.0 mph 95 % 0.00 in
22:33 45.4 °F 44.1 °F 29.86 in NW 2.5 mph 5.0 mph 95 % 0.00 in
22:35 45.4 °F 44.1 °F 29.86 in WNW 1.5 mph 5.8 mph 95 % 0.00 in
22:40 45.3 °F 44.0 °F 29.87 in WNW 2.3 mph 6.0 mph 95 % 0.00 in
22:45 45.1 °F 43.8 °F 29.87 in WNW 2.0 mph 7.0 mph 95 % 0.00 in
22:46 45.1 °F 43.8 °F 29.87 in WNW 2.1 mph 3.5 mph 95 % 0.00 in
22:51 45.0 °F 43.7 °F 29.88 in West 1.5 mph 5.0 mph 95 % 0.00 in
22:54 44.9 °F 43.3 °F 29.88 in NW 4.6 mph 5.8 mph 94 % 0.00 in
22:59 44.7 °F 43.1 °F 29.89 in NW 3.2 mph 8.1 mph 94 % 0.00 in
23:01 44.7 °F 43.1 °F 29.89 in WNW 2.4 mph 4.6 mph 94 % 0.00 in
23:06 44.6 °F 43.0 °F 29.89 in NW 2.6 mph 7.0 mph 94 % 0.00 in
23:08 44.5 °F 42.9 °F 29.90 in WNW 3.4 mph 5.8 mph 94 % 0.00 in
23:13 44.4 °F 42.8 °F 29.90 in WNW 6.2 mph 9.2 mph 94 % 0.00 in
23:18 44.3 °F 42.7 °F 29.90 in WNW 2.4 mph 4.6 mph 94 % 0.00 in
23:19 44.3 °F 42.7 °F 29.90 in NNW 3.4 mph 7.0 mph 94 % 0.00 in
23:24 44.1 °F 42.5 °F 29.91 in West 2.4 mph 8.1 mph 94 % 0.00 in
23:25 44.1 °F 42.5 °F 29.91 in WNW 2.7 mph 8.1 mph 94 % 0.00 in
23:30 44.0 °F 42.4 °F 29.91 in North 2.8 mph 6.9 mph 94 % 0.00 in
23:34 43.9 °F 42.3 °F 29.92 in WNW 3.0 mph 6.9 mph 94 % 0.00 in
23:39 43.8 °F 42.2 °F 29.92 in WNW 4.7 mph 8.0 mph 94 % 0.00 in
23:40 43.8 °F 41.9 °F 29.92 in WNW 3.8 mph 8.1 mph 93 % 0.00 in
23:42 43.8 °F 41.9 °F 29.92 in NNW 3.2 mph 7.0 mph 93 % 0.00 in
23:47 43.7 °F 41.8 °F 29.91 in NNW 4.9 mph 6.9 mph 93 % 0.00 in
23:49 43.6 °F 41.7 °F 29.91 in NNW 5.4 mph 8.1 mph 93 % 0.00 in
23:52 43.5 °F 41.6 °F 29.91 in NNW 3.3 mph 8.0 mph 93 % 0.00 in
23:57 43.4 °F 41.2 °F 29.92 in North 5.2 mph 6.9 mph 92 % 0.00 in
Crab Meadow Weather
Compliments of Weather Underground - 3.5 mb

Script developed by  Jim McMurry - jmcmurry@mwt.net Adapted for the template by  Wim van der Kuil - Leuven-Template.eu

Extremes: The highest temperature ever recorded in the United States was 134 degrees F at Greenland Ranch in Death Valley, California.